Regional Weather Roundup
Issued by NWS

Home | Current Version | Previous Version | Graphics & Text | Print | Product List | Glossary On
Versions: 1 2 3 4 5 6 7 8 9 10 11 12 13 14 15 16 17 18 19 20 21 22 23 24 25 26 27 28 29 30 31 32 33 34 35 36 37 38 39 40 41 42 43 44 45 46 47 48 49 50
000
ASUS43 KOAX 201102
RWRNE

WEATHER ROUNDUP FOR NEBRASKA
NATIONAL WEATHER SERVICE OMAHA NE
500 AM CST SAT JAN 20 2018

NOTES: SATELLITE DATA IS BEING USED TO AUGMENT CLOUD COVER ABOVE
       12000 FEET.
       "FAIR" INDICATES FEW OR NO CLOUDS BELOW 12,000 FEET WITH NO
       SIGNIFICANT WEATHER AND/OR OBSTRUCTIONS TO VISIBILITY.


NEZ001>004-019>022-054>056-201200-
NEBRASKA PANHANDLE

CITY           SKY/WX    TMP DP  RH WIND       PRES   REMARKS
SCOTTSBLUFF    PTCLDY    26  24  92 NW6       29.75S WCI  19
ALLIANCE       MOCLDY    23  22  96 CALM      29.75S
CHADRON        CLEAR     24  22  91 SW6       29.80S WCI  17
GORDON         FAIR      23  21  91 W3        29.79R
KIMBALL        CLOUDY    30  24  78 NW5       29.75F WCI  25
SIDNEY         CLOUDY    29  26  89 W6        29.74S WCI  23
$$

NEZ057>060-069>072-079>082-201200-
SOUTHWEST NEBRASKA

CITY           SKY/WX    TMP DP  RH WIND       PRES   REMARKS
NORTH PLATTE   MOCLDY    32  28  85 E3        29.75S
IMPERIAL       MOCLDY    27  26  96 CALM      29.73F
LEXINGTON      CLEAR     32  29  88 NE7       29.76S WCI  26
MCCOOK         CLEAR     27  26  96 NW5       29.75S WCI  22
OGALLALA       CLOUDY    28  27  93 CALM      29.74S
$$

NEZ005>010-023>029-035>040-094-201200-
NORTH CENTRAL NEBRASKA

CITY           SKY/WX    TMP DP  RH WIND       PRES   REMARKS
VALENTINE      CLEAR     26  24  92 W5        29.79F WCI  20
AINSWORTH      MOCLDY    28  28  99 CALM      29.79F
BROKEN BOW     PTCLDY    32  28  85 N5        29.76F WCI  27
O`NEILL        MOCLDY    30  29  98 N5        29.80F WCI  25
ORD            PTCLDY    29  27  92 NW6       29.79R WCI  23
THEDFORD       CLOUDY    30  28  94 CALM      29.79R
$$

NEZ041-046>049-061>064-073>077-083>087-201200-
SOUTH CENTRAL NEBRASKA

CITY           SKY/WX    TMP DP  RH WIND       PRES   REMARKS
GRAND ISLAND   CLOUDY    27  25  92 CALM      29.77S
AURORA         CLOUDY    27  26  94 NE9       29.76S WCI  18
HASTINGS       CLOUDY    28  26  92 NE6       29.76S WCI  22
HEBRON         CLOUDY    23  21  93 CALM      29.78S
HOLDREGE       CLOUDY    28  27  98 NE7       29.74S WCI  21
KEARNEY        CLOUDY    29  26  89 N8        29.76F WCI  21
YORK           CLOUDY    27  27 100 NE6       29.77F WCI  20
$$

NEZ011>018-030>034-042>045-201200-
NORTHEAST NEBRASKA

CITY           SKY/WX    TMP DP  RH WIND       PRES   REMARKS
NORFOLK        CLOUDY    29  28  96 NW3       29.79R
ALBION         CLOUDY    29  27  92 NW6       29.79S WCI  22
BLAIR          CLOUDY    32  29  88 NE6       29.78S WCI  27
COLUMBUS       CLOUDY    26  24  92 CALM      29.80S
FREMONT        CLOUDY    25  24  96 CALM      29.79F
TEKAMAH        PTCLDY    26  22  84 N9        29.80F WCI  17
WAYNE          CLOUDY    25  24  96 CALM      29.81R
$$

NEZ050>053-065>068-078-088>093-201200-
SOUTHEAST NEBRASKA

CITY           SKY/WX    TMP DP  RH WIND       PRES   REMARKS
LINCOLN        CLOUDY    24  21  88 W3        29.81R
OMAHA EPPLEY   CLOUDY    26  25  96 CALM      29.81R
BEATRICE       CLEAR     28  25  87 CALM      29.79S
FALLS CITY     CLEAR     31  27  85 S3        29.82S
NEBRASKA CITY  CLOUDY    28  26  93 S8        29.81S WCI  20
PLATTSMOUTH    CLOUDY    31  27  84 S3        29.80R
$$

NEZ044-045-051>053-067-201200-
OMAHA AREA

CITY           SKY/WX    TMP DP  RH WIND       PRES   REMARKS
OMAHA EPPLEY   CLOUDY    26  25  96 CALM      29.81R
BLAIR          CLOUDY    32  29  88 NE6       29.78S WCI  27
FREMONT        CLOUDY    25  24  96 CALM      29.79F
MILLARD        CLOUDY    27  24  91 CALM      29.81R
OFFUTT AFB     CLOUDY    24  22  93 CALM      29.80R
PLATTSMOUTH    CLOUDY    31  27  84 S3        29.80R
WAHOO          FAIR      24  22  91 N7        29.78F WCI  16
$$



USA.gov is the U.S. government's official web portal to all federal, state and local government web resources and services.